Home > Time Zones > World Clock > Weather > Fiji > Nadi > Past weeks

Flag Weather past 2 weeks in Nadi, Fiji

Now
73 °F

Passing clouds.


Feels Like: 70 °F
Forecast: 76 / 86 °F
Wind: 7 mph from Southeast

Location: Nandi

Current Time: Nov 22, 2014 at 7:07:30 AM

Latest Report: Nov 22, 2014 at 6:00 AM


Visibility: N/A

Pressure: 29.83 "Hg

Humidity: 94%

Dew point: 72 °F

Location of NadiLocation

Historic Weather in Nadi — Graph

°F

Nadi temperature yesterday

Maximum temperature yesterday: 93 °F (at 2:00 PM)
Minimum temperature yesterday: 75 °F (at 3:00 AM)
Average temperature yesterday: 83 °F

Past Weeks' High & Low Weather Summary

 TemperatureHumidityPressure
High93 °F (Nov 21, 2:00 PM)100% (Nov 9, 6:00 AM)30.01 "Hg (Nov 9, 6:00 AM)
Low64 °F (Nov 12, 5:00 AM)49% (Nov 18, 11:00 AM)29.68 "Hg (Nov 9, 4:00 AM)
Average79 °F76%29.86 "Hg
* Reported Nov 7 6:00 AM — Nov 22 6:00 AM, Nadi, Weather by CustomWeather, © 2014

Note: Actual official high and low records may vary slightly from our data, if they occured in-between our weather recording intervals... More about our weather records

Advertising

Nadi weather history for previous 24 hours

 ConditionsComfort  
Time TempWeatherWind HumidityBarometerVisibility
6:00 AM
Nov 22
73 °FPassing clouds.7 mph94%29.83 "HgN/A
5:00 AM73 °FPassing clouds.5 mph94%29.86 "HgN/A
4:00 AM73 °FPassing clouds.No wind100%29.86 "HgN/A
3:00 AM75 °FPassing clouds.No wind94%29.86 "HgN/A
2:00 AM75 °FPassing clouds.No wind94%29.86 "HgN/A
1:00 AM75 °FPassing clouds.6 mph94%29.89 "HgN/A
12:00 AM77 °FSprinkles. Passing clouds.10 mph89%29.92 "HgN/A
11:00 PM
Nov 21
81 °FPassing clouds.6 mph84%29.92 "HgN/A
10:00 PM81 °FPassing clouds.5 mph84%29.89 "HgN/A
9:00 PM81 °FPassing clouds.No wind89%29.86 "HgN/A
8:00 PM82 °FPassing clouds.9 mph79%29.83 "HgN/A
7:00 PM84 °FScattered clouds.14 mph74%29.80 "HgN/A
6:00 PM86 °FScattered clouds.15 mph66%29.77 "HgN/A
5:00 PM88 °FScattered clouds.17 mph66%29.77 "HgN/A
4:00 PM91 °FScattered clouds.21 mph59%29.77 "HgN/A
3:00 PM91 °FScattered clouds.10 mph56%29.77 "HgN/A
2:00 PM93 °FScattered clouds.10 mph49%29.80 "HgN/A
1:00 PM91 °FScattered clouds.8 mph56%29.83 "HgN/A
12:00 PM90 °FScattered clouds.6 mph63%29.83 "HgN/A
11:00 AM90 °FPartly sunny.7 mph63%29.86 "HgN/A
10:00 AM86 °FPartly sunny.5 mph66%29.89 "HgN/A
9:00 AM82 °FScattered clouds.6 mph74%29.89 "HgN/A
8:00 AM79 °FPartly sunny.6 mph79%29.89 "HgN/A
7:00 AM75 °FPartly sunny.7 mph83%29.86 "HgN/A
Weather by CustomWeather, © 2014

See weather overviewHow to use our weather pages